Windsor, Ontario

12:47 AM EST on November 18, 2017 (GMT -0500)
Windsor

Weather History for CYQG - January, 2014

Change the Weather History Date:

Saturday, January 11, 2014

  Actual Average Record
Temperature  
Mean Temperature 36 °F -  
Max Temperature 46 °F 31 °F 57 °F (2013)
Min Temperature 26 °F 17 °F 1 °F (1999)
Degree Days  
Heating Degree Days 29    
Moisture  
Dew Point 38 °F    
Average Humidity 94    
Maximum Humidity 100    
Minimum Humidity 80    
Precipitation  
Precipitation 0.12 in 0.07 in - ()
Sea Level Pressure  
Sea Level Pressure 29.49 in    
Wind  
Wind Speed 12 mph ()    
Max Wind Speed 25 mph    
Max Gust Speed 31 mph    
Visibility 4.9 miles    
Events Fog , Rain , Snow    
Averages and records for this station are not official NWS values.
T = Trace of Precipitation, MM = Missing Value Source: Averaged Metar Reports

Daily Weather History Graph

Daily Weather History Graph

Search for Another Location

Airport or City:

Trip Planner

Search our weather history database for the weather conditions in past years. The results will help you decide how hot, cold, wet, or windy it might be!

Date:

Astronomy

Jan. 11, 2014 Rise Set
Actual Time 7:59 AM EST 5:20 PM EST
Civil Twilight 7:28 AM EST 5:51 PM EST
Nautical Twilight 6:53 AM EST 6:26 PM EST
Astronomical Twilight 6:19 AM EST 7:00 PM EST
Moon 2:04 PM EST (1/11) 4:02 AM EST (1/11)
Length of Visible Light 10h 23m
Length of Day
9h 20m
Waxing Gibbous, 83% of the Moon is Illuminated
Jan 11
Waxing Gibbous
Jan 15
Full
Jan 24
Last Quarter
Jan 30
New
Feb 6
First Quarter

Hourly Weather History & Observations

Time (EST) Temp. Windchill Dew Point Humidity Pressure Visibility Wind Dir Wind Speed Gust Speed Precip Events Conditions
12:00 AM 39.2 °F 33.6 °F 39.2 °F 100% 29.73 in 1.5 mi South 8.1 mph - N/A Rain Light Rain
12:12 AM - - - N/A% - 0.8 mi South 10.4 mph - N/A Rain Light Rain
1:00 AM 39 °F - 39 °F 100% 29.65 in 1 mi SSE 10.4 mph - - Rain Light Rain
1:00 AM 39.2 °F 32.5 °F 39.2 °F 100% 29.65 in 0.8 mi South 10.4 mph - N/A Rain Light Rain
1:26 AM - - - N/A% - 2.0 mi South 13.8 mph - N/A Rain Light Rain
2:00 AM 41.0 °F 33.9 °F 41.0 °F 100% 29.63 in 4.0 mi SSW 12.7 mph - N/A Rain Light Rain
3:00 AM 42.8 °F 35.8 °F 42.8 °F 100% 29.60 in 5.0 mi SSW 13.8 mph - N/A Rain Light Rain
3:20 AM - - - N/A% - 5.0 mi SSW 16.1 mph - N/A Rain Light Rain
4:00 AM 41.0 °F 34.3 °F 41.0 °F 100% 29.55 in 3.0 mi SSW 11.5 mph - N/A Rain Light Rain
4:34 AM - - - N/A% - 1.0 mi SW 10.4 mph - N/A   Light Drizzle
4:50 AM - - - N/A% - 0.8 mi SW 10.4 mph - N/A   Light Drizzle
5:00 AM 41.0 °F 34.7 °F 41.0 °F 100% 29.53 in 0.8 mi SSW 10.4 mph - N/A   Light Drizzle
5:19 AM - - - N/A% - 0.5 mi SSW 11.5 mph - N/A Fog Light Drizzle
5:52 AM - - - N/A% - 0.4 mi SSW 9.2 mph - N/A Fog Light Drizzle
6:00 AM 41.0 °F 34.7 °F 41.0 °F 100% 29.52 in 0.4 mi SSW 10.4 mph - N/A Fog Light Drizzle
6:34 AM - - - N/A% - 0.2 mi SSW 10.4 mph - N/A Fog Fog
7:00 AM 41 °F - 41 °F 98% 29.46 in 0 mi SSW 12.7 mph - - Fog Partial Fog
7:00 AM 41.0 °F 33.9 °F 41.0 °F 100% 29.46 in 0.2 mi SSW 12.7 mph - N/A Fog Fog
7:14 AM - - - N/A% - 0.1 mi SSW 10.4 mph - N/A Fog Fog
8:00 AM 41.0 °F 34.3 °F 41.0 °F 100% 29.45 in 0.1 mi SSW 11.5 mph - N/A Fog Fog
8:37 AM - - - N/A% - 0.1 mi SSW 10.4 mph - N/A Fog Fog
9:00 AM 41.0 °F 35.2 °F 41.0 °F 100% 29.43 in 0.1 mi SSW 9.2 mph - N/A Fog Fog
9:09 AM - - - N/A% - 0.1 mi SSW 9.2 mph - N/A Fog , Rain Light Rain
9:33 AM - - - N/A% - 0.2 mi SSW 8.1 mph - N/A Fog , Rain Light Rain
10:00 AM 41.0 °F 34.3 °F 41.0 °F 100% 29.41 in 0.4 mi SSW 11.5 mph - N/A Fog , Rain Light Rain
10:15 AM - - - N/A% - 0.5 mi SSW 11.5 mph - N/A Fog , Rain Light Rain
10:50 AM - - - N/A% - 0.2 mi SW 10.4 mph - N/A Fog , Rain Light Rain
11:00 AM 41.0 °F 33.9 °F 41.0 °F 100% 29.38 in 0.2 mi SW 12.7 mph - N/A Fog , Rain Light Rain
11:12 AM - - - N/A% - 0.5 mi SW 13.8 mph - N/A Fog , Rain Light Rain
11:16 AM - - - N/A% - 0.8 mi SW 13.8 mph - N/A Rain Light Rain
11:22 AM - - - N/A% - 1.0 mi SW 13.8 mph - N/A Rain Light Rain
11:46 AM - - - N/A% - 0.8 mi SW 12.7 mph - N/A   Overcast
12:00 PM 41.0 °F 33.9 °F 41.0 °F 100% 29.36 in 0.4 mi SW 12.7 mph - N/A Fog Fog
12:14 PM - - - N/A% - 2.0 mi WSW 12.7 mph - N/A   Overcast
12:21 PM - - - N/A% - 5.0 mi WSW 13.8 mph - N/A   Overcast
12:40 PM - - - N/A% - 6.0 mi WSW 13.8 mph - N/A   Overcast
1:00 PM 42 °F - 42 °F 99% 29.32 in 7 mi WSW 13.8 mph - - Fog Light Fog
1:00 PM 42.8 °F 35.8 °F 42.8 °F 100% 29.32 in 8.0 mi WSW 13.8 mph - N/A   Overcast
2:00 PM 41.0 °F 34.3 °F 41.0 °F 100% 29.33 in 7.0 mi WSW 11.5 mph 17.3 mph N/A   Overcast
2:21 PM - - - N/A% - 6.0 mi WSW 13.8 mph - N/A Rain Light Rain Showers
3:00 PM 41.0 °F 31.9 °F 39.2 °F 93% 29.36 in 6.0 mi West 19.6 mph 25.3 mph N/A Rain Light Rain Showers
3:52 PM - - - N/A% - 12.0 mi WSW 25.3 mph 31.1 mph N/A Rain Light Rain Showers
4:00 PM 39.2 °F 28.5 °F 35.6 °F 87% 29.39 in 15.0 mi West 24.2 mph 31.1 mph N/A Rain Light Rain Showers
5:00 PM 37.4 °F 28.2 °F 33.8 °F 87% 29.42 in 15.0 mi West 16.1 mph 24.2 mph N/A Rain Light Rain Showers
5:28 PM - - - N/A% - 15.0 mi West 17.3 mph 28.8 mph N/A   Overcast
6:00 PM 37.4 °F 27.2 °F 33.8 °F 87% 29.46 in 15.0 mi West 19.6 mph 25.3 mph N/A   Overcast
7:00 PM 36 °F - 32 °F 80% 29.50 in 15 mi WNW 20.7 mph - -   Partly Cloudy
7:00 PM 37.4 °F 26.9 °F 32.0 °F 81% 29.50 in 15.0 mi WNW 20.7 mph - N/A   Overcast
7:53 PM - - - N/A% - 12.0 mi West 18.4 mph 27.6 mph N/A Rain Light Rain Showers
8:00 PM 35.6 °F 25.9 °F 32.0 °F 87% 29.54 in 12.0 mi WNW 16.1 mph 24.2 mph N/A Snow Light Snow Showers
8:22 PM - - - N/A% - 15.0 mi West 18.4 mph - N/A   Unknown
9:00 PM 35.6 °F 26.2 °F 30.2 °F 81% 29.58 in 15.0 mi West 15.0 mph 23.0 mph N/A   Overcast
10:00 PM 35.6 °F 26.2 °F 30.2 °F 81% 29.61 in 15.0 mi West 15.0 mph - N/A   Overcast
11:00 PM 35.6 °F 25.2 °F 30.2 °F 81% 29.64 in 15.0 mi West 18.4 mph - N/A   Overcast